EDT,Max TemperatureF,Mean TemperatureF,Min TemperatureF,Max Dew PointF,MeanDew PointF,Min DewpointF,Max Humidity, Mean Humidity, Min Humidity, Max Sea Level PressureIn, Mean Sea Level PressureIn, Min Sea Level PressureIn, Max VisibilityMiles, Mean VisibilityMiles, Min VisibilityMiles, Max Wind SpeedMPH, Mean Wind SpeedMPH, Max Gust SpeedMPH,PrecipitationIn, CloudCover, Events, WindDirDegrees
2014-3-1,37,20,3,32,17,-3,86,65,52,30.44,30.33,30.14,10,10,8,16,7,22,0.00,4,,205
2014-3-2,39,36,33,30,27,23,85,70,55,30.12,30.02,29.95,10,10,7,12,6,23,0.00,6,Snow,261
2014-3-3,34,25,16,27,13,0,85,65,40,30.28,30.07,29.93,10,6,0,20,12,29,0.00,6,Snow,1
2014-3-4,28,21,14,14,8,-2,60,52,41,30.36,30.31,30.26,10,10,10,13,8,,0.00,2,,297
2014-3-5,35,27,19,24,18,13,79,65,48,30.41,30.29,30.22,10,10,5,20,8,26,0.00,7,Snow,14
2014-3-6,30,21,10,16,12,6,84,65,43,30.59,30.53,30.43,10,9,2,20,12,26,0.00,4,Snow,14
2014-3-7,37,23,9,32,22,4,85,74,59,30.51,30.23,29.90,10,10,10,16,8,,0.00,3,,38
2014-3-8,54,41,28,34,30,22,89,71,34,29.86,29.78,29.69,10,10,10,14,10,,0.00,2,,353
2014-3-9,43,35,27,27,16,8,72,47,25,29.94,29.89,29.84,10,10,10,15,9,24,0.00,3,,327
2014-3-10,43,36,30,34,27,12,93,75,42,29.91,29.81,29.68,10,6,1,13,5,18,0.01,6,Snow,235
2014-3-11,57,46,33,36,33,27,89,64,40,29.73,29.61,29.54,10,10,8,14,8,20,0.00,1,,237
2014-3-12,54,44,35,50,44,27,96,85,66,29.72,29.29,28.96,10,6,0,25,11,37,0.37,6,Fog-Rain,181
2014-3-13,48,34,19,46,19,0,93,75,40,29.94,29.34,28.97,10,4,1,24,15,39,0.01,7,Rain-Snow,324
2014-3-14,39,28,18,32,14,-2,76,54,38,30.22,30.11,29.96,10,10,10,22,15,30,0.00,0,,252
2014-3-15,53,44,34,40,34,24,85,68,44,29.98,29.83,29.72,10,10,8,20,14,30,0.01,3,Rain,229
2014-3-16,41,34,30,29,10,2,70,37,27,30.18,30.07,29.91,10,10,10,16,10,26,0.00,1,,302
2014-3-17,32,21,10,15,10,2,81,53,30,30.16,30.09,30.03,10,10,10,18,13,26,0.00,6,,33
2014-3-18,39,22,8,20,14,3,84,64,44,30.35,30.28,30.17,10,10,7,15,7,23,0.00,0,,52
2014-3-19,45,36,28,36,27,21,86,67,51,30.37,30.23,29.97,10,10,10,17,10,25,0.00,3,,96
2014-3-20,54,46,39,45,40,27,96,82,46,29.98,29.71,29.63,10,6,0,23,15,32,0.33,7,Fog-Rain,211
2014-3-21,46,40,34,27,22,18,65,49,33,30.06,29.89,29.80,10,10,10,20,12,29,0.00,0,,281
2014-3-22,54,36,19,40,28,15,85,63,42,30.09,29.91,29.71,10,10,10,26,7,36,0.00,1,,233
2014-3-23,44,35,27,25,19,4,75,49,24,30.02,29.96,29.88,10,10,10,14,9,22,0.00,4,,305
2014-3-24,33,26,17,7,1,-4,54,37,23,30.16,30.10,30.02,10,10,10,20,13,31,0.00,1,,320
2014-3-25,37,23,9,19,8,0,73,48,30,30.17,30.08,29.83,10,10,10,18,4,28,0.00,1,,148
2014-3-26,36,30,26,27,19,1,89,67,29,29.98,29.59,29.45,10,4,0,40,26,61,0.00,6,Fog-Snow,354
2014-3-27,37,30,23,28,11,-1,70,46,32,30.35,30.27,30.02,10,10,10,26,18,39,0.00,0,,270
2014-3-28,53,45,37,43,38,29,93,77,64,30.30,30.15,30.03,10,9,5,26,14,38,0.10,4,Rain,215
2014-3-29,53,44,36,45,40,34,100,89,68,30.22,30.12,29.92,10,4,0,18,8,25,0.91,6,Fog-Rain,72
2014-3-30,60,49,39,54,47,36,96,91,83,29.90,29.62,29.52,10,3,0,23,16,34,0.96,8,Fog-Rain,134
2014-3-31,39,38,36,36,33,28,93,84,67,29.94,29.78,29.59,10,7,2,25,20,39,0.03,8,Rain-Snow,9